Find Qianfan Jigui 01-11

NORAD ID: 60389 Int'l Des: 2024-140 Owner: YUANX Country: CN Constellation: qianfan operational
LEOCIRCULARPOLAR

Live-Position

3D-Globus wird geladen...

Über Qianfan Jigui 01-11

Beschreibung wird geladen...

Nächste Überflüge

Passes for default location (London). Set your location on the main map for personalized predictions.

Höhenverlauf

Loading altitude history...

Zweizeiliger Elementsatz

1 60389U 24140L 26104.22671598 .00000061 00000-0 76260-4 0 9992
2 60389 88.9618 286.5004 0013734 196.4733 163.5974 13.51007071 83656
Epoch: 14. Apr. 2026 • Age: 11 hours

Aktueller Status

Höhe 1081.0 km
Geschwindigkeit 7.31 km/s
Subsatellitenpunkt 12.45°N, 158.68°W
Startdatum 6. Aug. 2024
Alter 1.6 years
Typ internet

Technische Details

Klassifizierung Payload
Masse 267.00 kg
Trockenmasse 267.00 kg
Gesamtmasse 267.00 kg
Länge 0.30 m
Durchmesser 3.00 m
Spannweite 10.00 m
Form Box+pan
Hersteller SECM
Bus-Typ Qianfan
Phasenstatus In Orbit
Besitzer/Staat YUANX/CN

Most Searched